{"data":{"norad_id":51114,"epoch":"2026-09-20T03:51:05.209344Z","epoch_age_seconds":77531,"freshness":"FRESH","line1":"1 51114U 22005L   26263.16047696  .00000271  00000+0  20501-4 0  9990","line2":"2 51114  53.1589 125.3548 0001485  86.5248 273.5924 15.31708058258380","mean_motion":15.31708058,"eccentricity":0.0001485,"inclination_deg":53.1589,"raan_deg":125.3548,"arg_perigee_deg":86.5248,"mean_anomaly_deg":273.5924,"bstar":2.0501e-5,"rev_number":25838,"period_min":94.012693377108,"perigee_km":469.69892018549,"apogee_km":471.73302951902,"semimajor_km":6848.8529748523,"source":"CELESTRAK","updated_at":"2026-09-20T09:00:39.585804Z"}}